(472) Roma
ephemeris date magn radius delta ra dec elong phase
Today26 Jul 202614.12.786 AU2.444 AU14h57m+00°07'98.7°21.1°
Opposition18 Aug 202712.22.548 AU1.543 AU22h04m-20°52'171.4°3.4°
(472) Roma - 2026-07-26
astro.vanbuitenen.nl


 
-1 year
-1 month
-1 day
Now
+1 day
+1 month
+1 year

The interactive orbit chart above shows the body's path through the solar system and its position at the given date. Green and blue lines are shown perpendicular to the ecliptic plane: Green if the path is above the ecliptic plane, blue if it is below. (Left-click and drag to rotate the view; Right-click and drag to move the view; Use scroll wheel to zoom in our out.)

The orbital elements of Roma are:

            e (Eccentricity)                : 0.0952979
            a (Semimajor axis)              : 2.5432348
            i (Inclination)                 : 15.81630
            Ω (Longitude of ascending node) : 126.99674
            ω (Argument of perihelion)      : 295.82557
            M (Mean anomaly)                : 168.46153
            Epoch                           : 2026 Jun 09

            L (Longitude of perihelion)     : 63.69975
            B (Latitude of perihelion)      : -14.20148
            P (Orbital period in years)     : 4.06            
        

The light curve chart below shows the estimated development of the minor planet's magnitude.


The all-sky chart below shows the path of the minor planet over the same period as the light curve. The current position is marked yellow.





The following chart shows the path of the minor planet in the next few days. The field of view is optimized for (~10x50) binoculars and finderscopes.




Ephemerides:
Date       Time       RA (2000)    DEC (2000)    delta   radius  elong  phase   PA    magn
2026-07-26 00:00 UT   14 57 11.4   +00 07 37     2.444    2.786   98.7   21.1   110   14.1 
2026-07-26 19:14 UT   14 57 33.5   +00 00 11     2.454    2.786   98.1   21.2   110   14.1 
2026-07-27 00:00 UT   14 57 39.1   +00 01 40     2.457    2.786   98.0   21.2   110   14.1 
2026-07-28 00:00 UT   14 58 08.0   +00 10 58     2.469    2.786   97.2   21.2   109   14.1 
2026-07-29 00:00 UT   14 58 38.0   +00 20 19     2.482    2.786   96.5   21.2   109   14.1 
2026-07-30 00:00 UT   14 59 09.0   +00 29 41     2.494    2.786   95.7   21.3   109   14.1 
2026-07-31 00:00 UT   14 59 41.2   +00 39 04     2.507    2.786   95.0   21.3   108   14.1 
2026-08-01 00:00 UT   15 00 14.4   +00 48 29     2.520    2.786   94.3   21.3   108   14.1 
2026-08-02 00:00 UT   15 00 48.8   +00 57 55     2.532    2.786   93.5   21.3   108   14.2 
2026-08-03 00:00 UT   15 01 24.1   -01 07 22     2.545    2.785   92.8   21.3   108   14.2 
2026-08-04 00:00 UT   15 02 00.5   -01 16 50     2.558    2.785   92.1   21.3   107   14.2 
2026-08-05 00:00 UT   15 02 38.0   -01 26 19     2.571    2.785   91.3   21.4   107   14.2 
2026-08-06 00:00 UT   15 03 16.5   -01 35 49     2.583    2.785   90.6   21.4   107   14.2 
2026-08-07 00:00 UT   15 03 56.0   -01 45 19     2.596    2.785   89.9   21.4   107   14.2 
2026-08-08 00:00 UT   15 04 36.4   -01 54 50     2.609    2.785   89.2   21.3   106   14.2 
2026-08-09 00:00 UT   15 05 17.9   -02 04 22     2.622    2.785   88.4   21.3   106   14.2 
2026-08-10 00:00 UT   15 06 00.4   -02 13 54     2.635    2.785   87.7   21.3   106   14.2 
2026-08-11 00:00 UT   15 06 43.9   -02 23 26     2.647    2.785   87.0   21.3   106   14.2 
2026-08-12 00:00 UT   15 07 28.3   -02 32 58     2.660    2.785   86.3   21.3   105   14.3 
2026-08-13 00:00 UT   15 08 13.6   -02 42 31     2.673    2.785   85.6   21.3   105   14.3 
2026-08-14 00:00 UT   15 08 59.9   -02 52 03     2.686    2.785   84.9   21.2   105   14.3 
2026-08-15 00:00 UT   15 09 47.2   -03 01 35     2.699    2.785   84.2   21.2   105   14.3 
2026-08-16 00:00 UT   15 10 35.3   -03 11 07     2.711    2.785   83.5   21.2   104   14.3 
2026-08-17 00:00 UT   15 11 24.4   -03 20 39     2.724    2.785   82.8   21.1   104   14.3 
2026-08-18 00:00 UT   15 12 14.4   -03 30 10     2.737    2.785   82.1   21.1   104   14.3 
2026-08-19 00:00 UT   15 13 05.2   -03 39 41     2.749    2.785   81.4   21.1   104   14.3 
2026-08-20 00:00 UT   15 13 56.9   -03 49 11     2.762    2.785   80.7   21.0   103   14.3 
2026-08-21 00:00 UT   15 14 49.5   -03 58 40     2.775    2.784   80.1   21.0   103   14.3 
2026-08-22 00:00 UT   15 15 42.9   -04 08 08     2.787    2.784   79.4   20.9   103   14.3 
2026-08-23 00:00 UT   15 16 37.2   -04 17 36     2.800    2.784   78.7   20.9   103   14.4 
2026-08-24 00:00 UT   15 17 32.2   -04 27 02     2.813    2.784   78.0   20.8   103   14.4 
2026-08-25 00:00 UT   15 18 28.1   -04 36 28     2.825    2.784   77.3   20.7   102   14.4 


    Terminology:
            
    delta:  distance between minor planet and earth in AU
    radius: distance between minor planet and sun in AU
    magn:   magnitude (brightness) estimate    
    ra:     right ascension in hours (24h = 360deg)
    dec:    declination in degrees
    elong:  elongation in degrees (angle sun-earth-minor planet)    
    phase:  phase angle in degrees (angle sun-minor planet-earth)        
    AU:     Astronomical Unit (mean distance between earth and sun: 149597870.7 km
    

Orbital elements provided by the MPC (Minor Planet Center).
Calculations by a modified version of AAPlus, a C# implementation of the AA+ project by PJ Naughter from the algorithms presented in the book "Astronomical Algorithms" by Jean Meeus.
NGC2000 dso catalog and star labels from VizieR as provided by the Strasbourg astronomical Data Center.
Tycho2 catalog from the ESO archive.